Regional Weather Roundup
Issued by NWS

Home | Current Version | Previous Version | Graphics & Text | Print | Product List | Glossary On
Versions: 1 2 3 4 5 6 7 8 9 10 11 12 13 14 15 16 17 18 19 20 21 22 23 24 25 26 27 28
000
ASUS45 KBOI 250710
RWRID

IDAHO REGIONAL WEATHER ROUNDUP
NATIONAL WEATHER SERVICE BOISE ID
100 AM MDT SUN JUN 25 2017

NOTE: "FAIR" INDICATES FEW OR NO CLOUDS BELOW 12000 FEET
WITH NO SIGNIFICANT WEATHER AND/OR OBSTRUCTIONS TO VISIBILITY

IDZ012-014-250800-
SOUTHWEST IDAHO


CITY           SKY/WX    TMP DP  RH WIND       PRES   REMARKS
BOISE          CLEAR     66  42  41 SE5       30.09S
CALDWELL       CLEAR     65  47  52 SE3       30.07F
MOUNTAIN HOME  CLEAR     64  35  33 NW6       30.09S
$$

IDZ016-017-250800-
SOUTHCENTRAL IDAHO


CITY           SKY/WX    TMP DP  RH WIND       PRES   REMARKS
BURLEY         CLEAR     57  42  57 SW5       30.17R
JEROME         CLEAR     67  38  34 S7        30.17S
TWIN FALLS       N/A     60  36  40 S10       30.18S
$$

IDZ019>023-250800-
SOUTHEAST IDAHO


CITY           SKY/WX    TMP DP  RH WIND       PRES   REMARKS
IDAHO FALLS    CLEAR     54  48  80 N5        30.25R
POCATELLO      CLEAR     56  42  59 CALM      30.22R
REXBURG        CLEAR     54  47  77 NE7       30.26R
$$

IDZ006-010-011-018-031-032-250800-
CENTRAL IDAHO MOUNTAINS


CITY           SKY/WX    TMP DP  RH WIND       PRES   REMARKS
MCCALL         CLEAR     58  36  43 N5        30.25S
HAILEY         CLEAR     55  45  67 NW7       30.27S
STANLEY          N/A     45  36  70 S6        30.36R
SALMON         CLEAR     55  37  50 CALM      30.25R
CHALLIS        CLEAR     58  37  45 SW5       30.26R
$$

IDZ002-004-006-007-026-250800-
NORTHERN IDAHO


CITY           SKY/WX    TMP DP  RH WIND       PRES   REMARKS
LEWISTON       CLEAR     69  41  36 S3        30.09S
LOWELL           N/A     59  52  77 CALM      30.15R
COEUR D`ALENE  CLEAR     59  46  62 NE6       30.16S
MULLAN PASS    CLEAR     60  29  30 CALM      30.36R
$$




USA.gov is the U.S. government's official web portal to all federal, state and local government web resources and services.